AUA5VL LIPE-LOWI

Flight info

Callsign AUA5VL
Flight time 0h 35m
Altitude 24000
Route LUMAV L12 VIC/N0354F180 L12 NAXAV M726 EKPIS/N0343F160 M726 BRENO BRENO3A
Aircraft A320/M-SDE3FGHIRWY/LB1

Departure

Time 2026-05-06 09:26
Airport Bologna Guglielmo Marconi Airport (LIPE)

Arrival

Time 2026-05-06 10:01
Airport Innsbruck Airport (LOWI)
Time Latitude Longitude Altitude Speed Heading
2026-05-06 09:05 44.52989 11.29150 131 ft 0 kts 116°
2026-05-06 09:19 44.52990 11.29146 126 ft 3 kts 116°
2026-05-06 09:19 44.53002 11.29113 128 ft 3 kts 116°
2026-05-06 09:19 44.53010 11.29085 126 ft 4 kts 81°
2026-05-06 09:20 44.52996 11.29061 125 ft 4 kts 22°
2026-05-06 09:20 44.52981 11.29052 127 ft 0 kts 27°
2026-05-06 09:22 44.53013 11.29074 127 ft 10 kts 27°
2026-05-06 09:22 44.53097 11.29134 128 ft 16 kts 27°
2026-05-06 09:22 44.53193 11.29202 131 ft 12 kts 23°
2026-05-06 09:23 44.53250 11.29136 128 ft 15 kts 296°
2026-05-06 09:23 44.53323 11.28933 126 ft 27 kts 296°
2026-05-06 09:23 44.53409 11.28693 127 ft 28 kts 297°
2026-05-06 09:23 44.53498 11.28444 126 ft 29 kts 297°
2026-05-06 09:24 44.53592 11.28187 130 ft 30 kts 297°
2026-05-06 09:24 44.53678 11.27948 129 ft 28 kts 297°
2026-05-06 09:24 44.53759 11.27720 127 ft 20 kts 296°
2026-05-06 09:24 44.53812 11.27598 127 ft 13 kts 316°
2026-05-06 09:25 44.53895 11.27574 127 ft 12 kts 17°
2026-05-06 09:25 44.53954 11.27664 125 ft 14 kts 69°
2026-05-06 09:25 44.53945 11.27752 125 ft 0 kts 117°
2026-05-06 09:25 44.53930 11.27793 128 ft 24 kts 117°
2026-05-06 09:26 44.53737 11.28328 127 ft 95 kts 116°
2026-05-06 09:26 44.53353 11.29400 138 ft 148 kts 116°
2026-05-06 09:26 44.52889 11.30703 745 ft 146 kts 116°
2026-05-06 09:26 44.52489 11.32023 1405 ft 155 kts 101°
2026-05-06 09:27 44.52641 11.33637 1778 ft 183 kts 71°
2026-05-06 09:27 44.53384 11.35222 2128 ft 210 kts 46°
2026-05-06 09:27 44.54684 11.36318 2601 ft 226 kts 14°
2026-05-06 09:27 44.56237 11.36579 3410 ft 225 kts
2026-05-06 09:28 44.57272 11.36756 3971 ft 227 kts
2026-05-06 09:28 44.58804 11.37311 4815 ft 229 kts 18°
2026-05-06 09:28 44.60723 11.38627 5832 ft 235 kts 28°
2026-05-06 09:28 44.62146 11.39791 6587 ft 239 kts 28°
2026-05-06 09:29 44.63115 11.40584 7098 ft 241 kts 28°
2026-05-06 09:29 44.64795 11.41993 7971 ft 246 kts 35°
2026-05-06 09:29 44.65700 11.43032 8356 ft 263 kts 40°
2026-05-06 09:29 44.67162 11.44789 9085 ft 289 kts 40°
2026-05-06 09:30 44.68752 11.46680 9889 ft 307 kts 40°
2026-05-06 09:30 44.71014 11.49348 10495 ft 336 kts 40°
2026-05-06 09:30 44.72869 11.51526 10861 ft 356 kts 40°
2026-05-06 09:30 44.74792 11.53782 11520 ft 363 kts 40°
2026-05-06 09:31 44.76742 11.56078 12252 ft 369 kts 40°
2026-05-06 09:31 44.78723 11.58409 13010 ft 373 kts 39°
2026-05-06 09:31 44.80132 11.59823 13490 ft 377 kts 30°
2026-05-06 09:31 44.82534 11.61311 14141 ft 380 kts 15°
2026-05-06 09:32 44.85147 11.61925 14784 ft 382 kts
2026-05-06 09:32 44.87813 11.62103 15438 ft 386 kts
2026-05-06 09:32 44.90505 11.62288 16076 ft 390 kts
2026-05-06 09:32 44.93233 11.62484 16701 ft 394 kts
2026-05-06 09:33 44.95988 11.62688 17323 ft 399 kts
2026-05-06 09:33 44.98775 11.62897 17938 ft 403 kts
2026-05-06 09:33 45.01590 11.63107 18502 ft 408 kts
2026-05-06 09:33 45.04441 11.63322 19050 ft 412 kts
2026-05-06 09:34 45.07319 11.63538 19630 ft 416 kts
2026-05-06 09:34 45.10186 11.63750 20202 ft 420 kts
2026-05-06 09:34 45.13122 11.63966 20754 ft 424 kts 360°
2026-05-06 09:34 45.16084 11.64179 21300 ft 428 kts 359°
2026-05-06 09:35 45.19073 11.64392 21843 ft 432 kts 359°
2026-05-06 09:35 45.22087 11.64608 22389 ft 436 kts 359°
2026-05-06 09:35 45.25125 11.64829 22930 ft 440 kts 359°
2026-05-06 09:35 45.28194 11.65051 23449 ft 444 kts 359°
2026-05-06 09:36 45.31288 11.65278 23896 ft 447 kts 359°
2026-05-06 09:36 45.34404 11.65504 24341 ft 450 kts 359°
2026-05-06 09:36 45.37541 11.65727 24768 ft 452 kts 359°
2026-05-06 09:36 45.40687 11.65954 25174 ft 455 kts 358°
2026-05-06 09:37 45.43863 11.66183 25577 ft 458 kts 358°
2026-05-06 09:37 45.47052 11.66411 25967 ft 460 kts 358°
2026-05-06 09:37 45.50258 11.66645 26346 ft 463 kts 358°
2026-05-06 09:37 45.53486 11.66884 26732 ft 466 kts 358°
2026-05-06 09:38 45.56686 11.67034 27100 ft 465 kts 352°
2026-05-06 09:38 45.59832 11.66306 27465 ft 456 kts 338°
2026-05-06 09:38 45.62905 11.65125 27849 ft 459 kts 338°
2026-05-06 09:38 45.65995 11.63929 28217 ft 461 kts 338°
2026-05-06 09:39 45.69098 11.62720 28570 ft 463 kts 338°
2026-05-06 09:39 45.72212 11.61504 28932 ft 466 kts 338°
2026-05-06 09:39 45.75346 11.60277 29311 ft 468 kts 338°
2026-05-06 09:39 45.78491 11.59045 29659 ft 470 kts 338°
2026-05-06 09:40 45.81658 11.57804 29906 ft 472 kts 337°
2026-05-06 09:40 45.84790 11.56585 29940 ft 459 kts 338°
2026-05-06 09:40 45.90868 11.54237 29937 ft 449 kts 337°
2026-05-06 09:41 45.96881 11.51868 29943 ft 448 kts 337°
2026-05-06 09:41 46.02850 11.49506 29931 ft 447 kts 337°
2026-05-06 09:42 46.08866 11.47130 29942 ft 449 kts 337°
2026-05-06 09:42 46.14878 11.44773 29713 ft 450 kts 339°
2026-05-06 09:43 46.18035 11.44209 29441 ft 462 kts 356°
2026-05-06 09:43 46.21236 11.44903 29166 ft 470 kts 12°
2026-05-06 09:43 46.24367 11.46242 28854 ft 470 kts 13°
2026-05-06 09:43 46.27489 11.47616 28573 ft 467 kts 13°
2026-05-06 09:44 46.30589 11.49002 28306 ft 466 kts 13°
2026-05-06 09:44 46.33674 11.50388 28034 ft 464 kts 14°
2026-05-06 09:44 46.36758 11.51772 27763 ft 462 kts 14°
2026-05-06 09:44 46.39823 11.53138 27501 ft 461 kts 14°
2026-05-06 09:45 46.42881 11.54492 27232 ft 458 kts 14°
2026-05-06 09:45 46.45879 11.55815 26752 ft 455 kts 14°
2026-05-06 09:45 46.48908 11.57151 26183 ft 454 kts 14°
2026-05-06 09:45 46.51924 11.58481 25631 ft 452 kts 14°
2026-05-06 09:46 46.54913 11.59805 25101 ft 450 kts 14°
2026-05-06 09:46 46.57903 11.61133 24565 ft 448 kts 14°
2026-05-06 09:46 46.60884 11.62461 24031 ft 447 kts 15°
2026-05-06 09:46 46.63853 11.63787 23484 ft 446 kts 15°
2026-05-06 09:47 46.66814 11.65112 22892 ft 444 kts 15°
2026-05-06 09:47 46.69761 11.66433 22339 ft 442 kts 15°
2026-05-06 09:47 46.72691 11.67745 21788 ft 440 kts 15°
2026-05-06 09:47 46.75613 11.69055 21231 ft 438 kts 15°
2026-05-06 09:48 46.78508 11.70350 20712 ft 435 kts 15°
2026-05-06 09:48 46.81408 11.71649 20181 ft 434 kts 16°
2026-05-06 09:48 46.84283 11.72941 19758 ft 429 kts 16°
2026-05-06 09:48 46.87131 11.74225 19326 ft 426 kts 17°
2026-05-06 09:49 46.89955 11.75500 18862 ft 423 kts 16°
2026-05-06 09:49 46.92687 11.76732 18348 ft 410 kts 16°
2026-05-06 09:49 46.95376 11.77947 17694 ft 399 kts 16°
2026-05-06 09:49 46.97999 11.79132 17031 ft 391 kts 16°
2026-05-06 09:50 47.00567 11.80292 16406 ft 380 kts 16°
2026-05-06 09:50 47.03051 11.81411 15905 ft 368 kts 16°
2026-05-06 09:50 47.05475 11.82508 15389 ft 360 kts 16°
2026-05-06 09:50 47.07845 11.83582 14886 ft 355 kts 17°
2026-05-06 09:51 47.10198 11.84652 14399 ft 352 kts 16°
2026-05-06 09:51 47.12509 11.85702 13903 ft 342 kts 16°
2026-05-06 09:51 47.14761 11.86727 13400 ft 335 kts 16°
2026-05-06 09:51 47.16941 11.87719 12876 ft 329 kts 17°
2026-05-06 09:52 47.19127 11.88718 12344 ft 323 kts 17°
2026-05-06 09:52 47.21259 11.89672 11825 ft 317 kts 13°
2026-05-06 09:52 47.23401 11.89921 11507 ft 301 kts 351°
2026-05-06 09:52 47.25355 11.89259 11267 ft 287 kts 340°
2026-05-06 09:53 47.27244 11.88420 11018 ft 281 kts 340°
2026-05-06 09:53 47.29089 11.87589 10771 ft 274 kts 340°
2026-05-06 09:53 47.30851 11.86567 10300 ft 275 kts 323°
2026-05-06 09:53 47.32246 11.84675 9813 ft 271 kts 297°
2026-05-06 09:54 47.32788 11.82176 9580 ft 245 kts 262°
2026-05-06 09:54 47.32334 11.79912 9296 ft 224 kts 240°
2026-05-06 09:54 47.31830 11.77749 8930 ft 224 kts 254°
2026-05-06 09:54 47.31535 11.75515 8585 ft 220 kts 255°
2026-05-06 09:55 47.31251 11.73326 8176 ft 214 kts 255°
2026-05-06 09:55 47.30969 11.71228 7837 ft 203 kts 254°
2026-05-06 09:55 47.30699 11.69231 7504 ft 194 kts 253°
2026-05-06 09:55 47.30443 11.67346 7195 ft 182 kts 254°
2026-05-06 09:56 47.30201 11.65572 6916 ft 173 kts 253°
2026-05-06 09:56 47.29972 11.63889 6662 ft 161 kts 253°
2026-05-06 09:56 47.29757 11.62319 6393 ft 151 kts 252°
2026-05-06 09:56 47.29552 11.60822 6165 ft 147 kts 253°
2026-05-06 09:57 47.29352 11.59369 5918 ft 147 kts 254°
2026-05-06 09:57 47.29150 11.57893 5673 ft 147 kts 255°
2026-05-06 09:57 47.28944 11.56396 5413 ft 149 kts 255°
2026-05-06 09:57 47.28738 11.54897 5168 ft 153 kts 255°
2026-05-06 09:58 47.28523 11.53337 4898 ft 158 kts 255°
2026-05-06 09:58 47.28300 11.51716 4634 ft 163 kts 254°
2026-05-06 09:58 47.28076 11.50096 4384 ft 159 kts 255°
2026-05-06 09:58 47.27858 11.48524 4138 ft 155 kts 255°
2026-05-06 09:59 47.27647 11.46980 3874 ft 151 kts 256°
2026-05-06 09:59 47.27441 11.45488 3625 ft 147 kts 256°
2026-05-06 09:59 47.27214 11.44038 3382 ft 145 kts 250°
2026-05-06 09:59 47.26933 11.42602 3039 ft 147 kts 255°
2026-05-06 10:00 47.26736 11.41140 2795 ft 144 kts 257°
2026-05-06 10:00 47.26590 11.39646 2531 ft 148 kts 258°
2026-05-06 10:00 47.26438 11.38127 2324 ft 153 kts 255°
2026-05-06 10:00 47.26261 11.36552 2064 ft 158 kts 255°
2026-05-06 10:01 47.26083 11.34982 1904 ft 146 kts 259°
2026-05-06 10:01 47.25963 11.33866 1909 ft 68 kts 261°
2026-05-06 10:01 47.25917 11.33457 1910 ft 38 kts 261°
2026-05-06 10:01 47.25871 11.33194 1910 ft 16 kts 206°
2026-05-06 10:02 47.25886 11.33151 1914 ft 9 kts 41°
2026-05-06 10:02 47.25901 11.33280 1914 ft 20 kts 84°
2026-05-06 10:02 47.25928 11.33545 1915 ft 30 kts 82°
2026-05-06 10:02 47.25959 11.33841 1915 ft 28 kts 80°
2026-05-06 10:03 47.25989 11.34120 1904 ft 28 kts 82°
2026-05-06 10:03 47.26018 11.34394 1898 ft 27 kts 80°
2026-05-06 10:03 47.26053 11.34697 1899 ft 30 kts 81°
2026-05-06 10:03 47.26083 11.34984 1903 ft 27 kts 81°
2026-05-06 10:04 47.26103 11.35214 1897 ft 16 kts 108°
2026-05-06 10:04 47.26002 11.35273 1897 ft 17 kts 170°
2026-05-06 10:04 47.25903 11.35276 1901 ft 15 kts 211°
2026-05-06 10:04 47.25882 11.35143 1896 ft 13 kts 264°
2026-05-06 10:05 47.25866 11.35023 1901 ft 10 kts 238°
2026-05-06 10:05 47.25818 11.34997 1897 ft 5 kts 183°
2026-05-06 10:05 47.25810 11.34998 1895 ft 0 kts 175°
2026-05-06 10:14 47.25811 11.34998 1901 ft 0 kts 175°